,,,PA_Meas_PMT16A,,PR_Meas_QMR101_102,,RH_Meas_QMH101,,SR_Meas_QMS101,,TA_Meas_QMH101,,GenWind,,GenWind,
date,time,status,PA,status,PR,status,RH,status,SR,status,TA,status,DirAvg,status,SpdAvg,
2010-03-11, 00:00:04,VALID,1007.45,VALID,0,VALID,86.4276,VALID,0,VALID,25.5707,VALID,18,VALID,0.199219,
2010-03-11, 00:01:04,VALID,1007.41,VALID,0,VALID,86.6259,VALID,0,VALID,25.5513,VALID,18,VALID,0.310156,
2010-03-11, 00:02:04,VALID,1007.41,VALID,0,VALID,86.7633,VALID,0,VALID,25.5513,VALID,352,VALID,0.719531,
2010-03-11, 00:03:04,VALID,1007.37,VALID,0,VALID,86.7709,VALID,0,VALID,25.5532,VALID,351,VALID,0.0804688,
2010-03-11, 00:04:04,VALID,1007.36,VALID,0,VALID,86.748,VALID,0,VALID,25.5532,VALID,358,VALID,0.479688,
2010-03-11, 00:05:04,VALID,1007.33,VALID,0,VALID,86.8853,VALID,0,VALID,25.5532,VALID,358,VALID,0.284766,
2010-03-11, 00:06:04,VALID,1007.31,VALID,0,VALID,87.0226,VALID,0,VALID,25.5337,VALID,30,VALID,0.367188,
2010-03-11, 00:07:04,VALID,1007.31,VALID,0,VALID,87.1371,VALID,0,VALID,25.5142,VALID,27,VALID,0.545703,
2010-03-11, 00:08:04,VALID,1007.32,VALID,0,VALID,87.1752,VALID,0,VALID,25.4948,VALID,11,VALID,0.244141,
2010-03-11, 00:09:04,VALID,1007.29,VALID,0,VALID,87.343,VALID,0,VALID,25.4753,VALID,11,VALID,0.4,
2010-03-11, 00:10:04,VALID,1007.3,VALID,0,VALID,87.3965,VALID,0,VALID,25.4753,VALID,11,VALID,0,
2010-03-11, 00:11:04,VALID,1007.29,VALID,0,VALID,87.4956,VALID,0,VALID,25.4344,VALID,12,VALID,0,
2010-03-11, 00:12:04,VALID,1007.3,VALID,0,VALID,87.5185,VALID,0,VALID,25.4363,VALID,13,VALID,0.522656,
2010-03-11, 00:13:04,VALID,1007.29,VALID,0,VALID,87.5033,VALID,0,VALID,25.4169,VALID,35,VALID,0.593359,
2010-03-11, 00:14:04,VALID,1007.27,VALID,0,VALID,87.6024,VALID,0,VALID,25.3565,VALID,30,VALID,0.412109,
2010-03-11, 00:15:04,VALID,1007.26,VALID,0,VALID,87.6863,VALID,0,VALID,25.3779,VALID,29,VALID,0.874219,
2010-03-11, 00:16:04,VALID,1007.26,VALID,0,VALID,87.6024,VALID,0,VALID,25.3974,VALID,8,VALID,0.871094,
2010-03-11, 00:17:04,VALID,1007.23,VALID,0,VALID,87.6253,VALID,0,VALID,25.376,VALID,34,VALID,1.24414,
2010-03-11, 00:18:04,VALID,1007.22,VALID,0,VALID,87.5185,VALID,0,VALID,25.3779,VALID,28,VALID,1.15156,
2010-03-11, 00:19:04,VALID,1007.22,VALID,0,VALID,87.7245,VALID,0,VALID,25.339,VALID,45,VALID,0.752344,
2010-03-11, 00:20:04,VALID,1007.19,VALID,0,VALID,88.0525,VALID,0,VALID,25.3195,VALID,54,VALID,0.767578,
2010-03-11, 00:21:04,VALID,1007.21,VALID,0,VALID,88.167,VALID,0,VALID,25.2786,VALID,30,VALID,0.862109,
2010-03-11, 00:22:04,VALID,1007.2,VALID,0,VALID,88.0754,VALID,0,VALID,25.3955,VALID,39,VALID,1.93438,
2010-03-11, 00:23:04,VALID,1007.16,VALID,0,VALID,87.5643,VALID,0,VALID,25.5142,VALID,33,VALID,0.653125,
2010-03-11, 00:24:04,VALID,1007.19,VALID,0,VALID,87.1905,VALID,0,VALID,25.5142,VALID,27,VALID,0.794922,
2010-03-11, 00:25:04,VALID,1007.18,VALID,0,VALID,87.2896,VALID,0,VALID,25.4928,VALID,20,VALID,1.20742,
2010-03-11, 00:26:04,VALID,1007.18,VALID,0,VALID,87.2057,VALID,0,VALID,25.5123,VALID,29,VALID,0.873047,
2010-03-11, 00:27:04,VALID,1007.16,VALID,0,VALID,87.1828,VALID,0,VALID,25.5707,VALID,20,VALID,1.78516,
2010-03-11, 00:28:04,VALID,1007.19,VALID,0,VALID,86.9387,VALID,0,VALID,25.6097,VALID,7,VALID,1.52656,
2010-03-11, 00:29:04,VALID,1007.15,VALID,0,VALID,86.7404,VALID,0,VALID,25.6486,VALID,19,VALID,0.849609,
2010-03-11, 00:30:04,VALID,1007.16,VALID,0,VALID,86.809,VALID,0,VALID,25.6506,VALID,24,VALID,0.427734,
2010-03-11, 00:31:04,VALID,1007.16,VALID,0,VALID,86.9692,VALID,0,VALID,25.6525,VALID,17,VALID,0.701563,
2010-03-11, 00:32:04,VALID,1007.14,VALID,0,VALID,87.0913,VALID,0,VALID,25.5921,VALID,16,VALID,0.555469,
2010-03-11, 00:33:04,VALID,1007.14,VALID,0,VALID,87.2362,VALID,0,VALID,25.5707,VALID,15,VALID,0.551172,
2010-03-11, 00:34:04,VALID,1007.14,VALID,0,VALID,87.3736,VALID,0,VALID,25.5727,VALID,17,VALID,0.557422,
2010-03-11, 00:35:04,VALID,1007.14,VALID,0,VALID,87.4804,VALID,0,VALID,25.5532,VALID,10,VALID,0.485156,
2010-03-11, 00:36:04,VALID,1007.18,VALID,0,VALID,87.5567,VALID,0,VALID,25.5532,VALID,8,VALID,0.287891,
2010-03-11, 00:37:04,VALID,1007.13,VALID,0,VALID,87.6101,VALID,0,VALID,25.5532,VALID,34,VALID,0.639453,
2010-03-11, 00:38:04,VALID,1007.11,VALID,0,VALID,87.6711,VALID,0,VALID,25.5337,VALID,22,VALID,0.930078,
2010-03-11, 00:39:04,VALID,1007.12,VALID,0,VALID,87.694,VALID,0,VALID,25.5532,VALID,20,VALID,0.560156,
2010-03-11, 00:40:04,VALID,1007.09,VALID,0,VALID,87.7855,VALID,0,VALID,25.5337,VALID,20,VALID,0.534375,
2010-03-11, 00:41:04,VALID,1007.09,VALID,0,VALID,87.8466,VALID,0,VALID,25.5337,VALID,19,VALID,0.599609,
2010-03-11, 00:42:04,VALID,1007.07,VALID,0,VALID,87.7321,VALID,0,VALID,25.5318,VALID,34,VALID,0.654297,
2010-03-11, 00:43:04,VALID,1007.08,VALID,0,VALID,87.6558,VALID,0,VALID,25.5707,VALID,11,VALID,0.836719,
2010-03-11, 00:44:04,VALID,1007.04,VALID,0,VALID,87.5261,VALID,0,VALID,25.6116,VALID,39,VALID,0.658203,
2010-03-11, 00:45:04,VALID,1007.06,VALID,0,VALID,87.5109,VALID,0,VALID,25.5707,VALID,43,VALID,0.424609,
2010-03-11, 00:46:04,VALID,1007.03,VALID,0,VALID,87.6177,VALID,0,VALID,25.5318,VALID,41,VALID,0.589063,
2010-03-11, 00:47:04,VALID,1007.04,VALID,0,VALID,87.6177,VALID,0,VALID,25.5123,VALID,41,VALID,0.292969,
2010-03-11, 00:48:04,VALID,1007.03,VALID,0,VALID,87.694,VALID,0,VALID,25.4928,VALID,41,VALID,0.25,
2010-03-11, 00:49:04,VALID,1007.02,VALID,0,VALID,87.9076,VALID,0,VALID,25.4948,VALID,41,VALID,0.314844,
2010-03-11, 00:50:04,VALID,1007.04,VALID,0,VALID,88.1441,VALID,0,VALID,25.4753,VALID,40,VALID,0.324219,
2010-03-11, 00:51:04,VALID,1007.04,VALID,0,VALID,88.3119,VALID,0,VALID,25.4753,VALID,10,VALID,0.127734,
2010-03-11, 00:52:04,VALID,1007.05,VALID,0,VALID,88.3577,VALID,0,VALID,25.5142,VALID,355,VALID,0.944141,
2010-03-11, 00:53:04,VALID,1007.03,VALID,0,VALID,88.2967,VALID,0,VALID,25.5318,VALID,18,VALID,1.07695,
2010-03-11, 00:54:04,VALID,1007.03,VALID,0,VALID,87.9686,VALID,0,VALID,25.5727,VALID,41,VALID,0.663672,
2010-03-11, 00:55:04,VALID,1007.04,VALID,0,VALID,87.8084,VALID,0,VALID,25.5921,VALID,42,VALID,0.500391,
2010-03-11, 00:56:04,VALID,1007.04,VALID,0,VALID,87.7626,VALID,0,VALID,25.5921,VALID,42,VALID,0.267188,
2010-03-11, 00:57:04,VALID,1007.06,VALID,0,VALID,87.8694,VALID,0,VALID,25.5727,VALID,42,VALID,0.189453,
2010-03-11, 00:58:04,VALID,1007.03,VALID,0,VALID,88.0296,VALID,0,VALID,25.5727,VALID,26,VALID,0.147266,
2010-03-11, 00:59:04,VALID,1007.03,VALID,0,VALID,88.1975,VALID,0,VALID,25.5532,VALID,9,VALID,0.444531,
2010-03-11, 01:00:04,VALID,1007.04,VALID,0,VALID,88.1059,VALID,0,VALID,25.5532,VALID,6,VALID,0,
2010-03-11, 01:01:04,VALID,1007.05,VALID,0,VALID,88.2127,VALID,0,VALID,25.5318,VALID,4,VALID,0.355859,
2010-03-11, 01:02:04,VALID,1007.01,VALID,0,VALID,88.3806,VALID,0,VALID,25.5727,VALID,3,VALID,0.417188,
2010-03-11, 01:03:04,VALID,1006.99,VALID,0,VALID,88.0907,VALID,0,VALID,25.6097,VALID,15,VALID,0.544531,
2010-03-11, 01:04:04,VALID,1006.99,VALID,0,VALID,87.8542,VALID,0,VALID,25.7109,VALID,13,VALID,0.540625,
2010-03-11, 01:05:04,VALID,1006.98,VALID,0,VALID,87.7016,VALID,0,VALID,25.6895,VALID,22,VALID,0.538281,
2010-03-11, 01:06:04,VALID,1006.98,VALID,0,VALID,87.6863,VALID,0,VALID,25.6895,VALID,23,VALID,0.271094,
2010-03-11, 01:07:04,VALID,1006.97,VALID,0,VALID,87.5414,VALID,0,VALID,25.6097,VALID,23,VALID,0.373828,
2010-03-11, 01:08:04,VALID,1006.96,VALID,0,VALID,87.7245,VALID,0,VALID,25.6486,VALID,25,VALID,0.728516,
2010-03-11, 01:09:04,VALID,1006.95,VALID,0,VALID,87.8313,VALID,0,VALID,25.6895,VALID,11,VALID,0.692969,
2010-03-11, 01:10:04,VALID,1006.97,VALID,0,VALID,87.7016,VALID,0,VALID,25.709,VALID,355,VALID,0.662891,
2010-03-11, 01:11:04,VALID,1006.97,VALID,0,VALID,87.6101,VALID,0,VALID,25.7499,VALID,331,VALID,0.575391,
2010-03-11, 01:12:04,VALID,1006.96,VALID,0,VALID,87.4651,VALID,0,VALID,25.7265,VALID,338,VALID,0.442187,
2010-03-11, 01:13:04,VALID,1006.94,VALID,0,VALID,87.4499,VALID,0,VALID,25.7869,VALID,339,VALID,0.0246094,
2010-03-11, 01:14:04,VALID,1006.93,VALID,0,VALID,87.427,VALID,0,VALID,25.746,VALID,343,VALID,0.18125,
2010-03-11, 01:15:04,VALID,1006.94,VALID,0,VALID,87.343,VALID,0,VALID,25.7674,VALID,340,VALID,0.425391,
2010-03-11, 01:16:04,VALID,1006.91,VALID,0,VALID,87.2057,VALID,0.100563,VALID,25.785,VALID,301,VALID,0.714844,
2010-03-11, 01:17:04,VALID,1006.92,VALID,0,VALID,87.2439,VALID,0,VALID,25.8259,VALID,304,VALID,0.383984,
2010-03-11, 01:18:04,VALID,1006.91,VALID,0,VALID,87.2973,VALID,0,VALID,25.8064,VALID,312,VALID,0.210547,
2010-03-11, 01:19:04,VALID,1006.9,VALID,0,VALID,87.3278,VALID,0,VALID,25.785,VALID,312,VALID,0.215234,
2010-03-11, 01:20:04,VALID,1006.86,VALID,0,VALID,87.3965,VALID,0,VALID,25.7655,VALID,312,VALID,0.0148437,
2010-03-11, 01:21:04,VALID,1006.82,VALID,0,VALID,87.4193,VALID,0,VALID,25.7071,VALID,312,VALID,0.129297,
2010-03-11, 01:22:04,VALID,1006.83,VALID,0,VALID,87.6101,VALID,0.100563,VALID,25.709,VALID,320,VALID,0,
2010-03-11, 01:23:04,VALID,1006.79,VALID,0,VALID,87.7321,VALID,0,VALID,25.6486,VALID,337,VALID,0.261328,
2010-03-11, 01:24:04,VALID,1006.76,VALID,0,VALID,87.8008,VALID,0,VALID,25.6486,VALID,337,VALID,0.160938,
2010-03-11, 01:25:04,VALID,1006.75,VALID,0,VALID,87.9686,VALID,0,VALID,25.67,VALID,337,VALID,0.00664063,
2010-03-11, 01:26:04,VALID,1006.75,VALID,0,VALID,88.0602,VALID,0,VALID,25.67,VALID,337,VALID,0.0589844,
2010-03-11, 01:27:04,VALID,1006.71,VALID,0,VALID,88.1365,VALID,0,VALID,25.6311,VALID,338,VALID,0.443359,
2010-03-11, 01:28:04,VALID,1006.7,VALID,0,VALID,87.9915,VALID,0,VALID,25.6097,VALID,36,VALID,0.460547,
2010-03-11, 01:29:04,VALID,1006.67,VALID,0,VALID,88.0678,VALID,0,VALID,25.6506,VALID,14,VALID,0.50625,
2010-03-11, 01:30:04,VALID,1006.66,VALID,0,VALID,88.0602,VALID,0,VALID,25.6506,VALID,359,VALID,0.430859,
2010-03-11, 01:31:04,VALID,1006.61,VALID,0,VALID,87.9686,VALID,0,VALID,25.6506,VALID,359,VALID,0.0148437,
2010-03-11, 01:32:04,VALID,1006.58,VALID,0,VALID,88.0525,VALID,0,VALID,25.6506,VALID,7,VALID,0.179297,
2010-03-11, 01:33:04,VALID,1006.56,VALID,0,VALID,87.961,VALID,0,VALID,25.6311,VALID,23,VALID,0.508203,
2010-03-11, 01:34:04,VALID,1006.56,VALID,0,VALID,88.0678,VALID,0,VALID,25.6292,VALID,19,VALID,0.589844,
2010-03-11, 01:35:04,VALID,1006.52,VALID,0,VALID,87.9,VALID,0,VALID,25.6506,VALID,23,VALID,0.669141,
2010-03-11, 01:36:04,VALID,1006.51,VALID,0,VALID,87.7703,VALID,0,VALID,25.6292,VALID,23,VALID,0.341016,
2010-03-11, 01:37:04,VALID,1006.5,VALID,0,VALID,87.755,VALID,0,VALID,25.6292,VALID,10,VALID,0.648047,
2010-03-11, 01:38:04,VALID,1006.5,VALID,0,VALID,87.7016,VALID,0,VALID,25.6311,VALID,5,VALID,0.175,
2010-03-11, 01:39:04,VALID,1006.5,VALID,0,VALID,87.6787,VALID,0,VALID,25.6506,VALID,5,VALID,0.0175781,
2010-03-11, 01:40:04,VALID,1006.54,VALID,0,VALID,87.7245,VALID,0,VALID,25.6097,VALID,4,VALID,0.377734,
2010-03-11, 01:41:04,VALID,1006.54,VALID,0,VALID,87.7321,VALID,0,VALID,25.6097,VALID,21,VALID,0.101172,
2010-03-11, 01:42:04,VALID,1006.56,VALID,0,VALID,87.7703,VALID,0,VALID,25.6116,VALID,21,VALID,0.173438,
2010-03-11, 01:43:04,VALID,1006.56,VALID,0,VALID,87.8084,VALID,0,VALID,25.6116,VALID,31,VALID,0.542188,
2010-03-11, 01:44:04,VALID,1006.59,VALID,0,VALID,87.7855,VALID,0,VALID,25.6116,VALID,16,VALID,0.367188,
2010-03-11, 01:45:04,VALID,1006.57,VALID,0,VALID,87.7626,VALID,0,VALID,25.6116,VALID,16,VALID,0.262891,
2010-03-11, 01:46:04,VALID,1006.56,VALID,0,VALID,87.8084,VALID,0,VALID,25.6116,VALID,16,VALID,0.298438,
2010-03-11, 01:47:04,VALID,1006.54,VALID,0,VALID,87.8618,VALID,0,VALID,25.6116,VALID,16,VALID,0.179688,
2010-03-11, 01:48:04,VALID,1006.52,VALID,0,VALID,87.8466,VALID,0,VALID,25.6116,VALID,16,VALID,0.1625,
2010-03-11, 01:49:04,VALID,1006.5,VALID,0,VALID,87.8389,VALID,0,VALID,25.6116,VALID,15,VALID,1.09727,
2010-03-11, 01:50:04,VALID,1006.5,VALID,0,VALID,87.6101,VALID,0,VALID,25.6097,VALID,358,VALID,0.416016,
2010-03-11, 01:51:04,VALID,1006.49,VALID,0,VALID,87.6635,VALID,0,VALID,25.6486,VALID,358,VALID,0.00117188,
2010-03-11, 01:52:04,VALID,1006.46,VALID,0,VALID,87.343,VALID,0,VALID,25.6681,VALID,23,VALID,0.69375,
2010-03-11, 01:53:04,VALID,1006.43,VALID,0,VALID,86.9692,VALID,0,VALID,25.7285,VALID,2,VALID,0.591406,
2010-03-11, 01:54:04,VALID,1006.42,VALID,0,VALID,86.9006,VALID,0,VALID,25.748,VALID,4,VALID,0.391406,
2010-03-11, 01:55:04,VALID,1006.4,VALID,0,VALID,86.809,VALID,0,VALID,25.746,VALID,333,VALID,0.343359,
2010-03-11, 01:56:04,VALID,1006.44,VALID,0,VALID,86.7175,VALID,0,VALID,25.7869,VALID,335,VALID,0.5875,
2010-03-11, 01:57:04,VALID,1006.44,VALID,0,VALID,86.7556,VALID,0,VALID,25.746,VALID,325,VALID,0.571484,
2010-03-11, 01:58:04,VALID,1006.43,VALID,0,VALID,86.5878,VALID,0,VALID,25.7674,VALID,355,VALID,0.621875,
2010-03-11, 01:59:04,VALID,1006.45,VALID,0,VALID,86.6412,VALID,0,VALID,25.7869,VALID,355,VALID,0.338672,
2010-03-11, 02:00:04,VALID,1006.42,VALID,0,VALID,86.7327,VALID,0,VALID,25.7674,VALID,25,VALID,0.270312,
2010-03-11, 02:01:04,VALID,1006.4,VALID,0,VALID,86.8701,VALID,0,VALID,25.746,VALID,25,VALID,0.0601562,
2010-03-11, 02:02:04,VALID,1006.41,VALID,0,VALID,86.8472,VALID,0,VALID,25.7265,VALID,10,VALID,0.282031,
2010-03-11, 02:03:04,VALID,1006.4,VALID,0,VALID,87.0684,VALID,0,VALID,25.748,VALID,10,VALID,0.300781,
2010-03-11, 02:04:04,VALID,1006.39,VALID,0,VALID,86.9998,VALID,0,VALID,25.7071,VALID,48,VALID,0.888281,
2010-03-11, 02:05:04,VALID,1006.38,VALID,0,VALID,87.0684,VALID,0,VALID,25.7285,VALID,11,VALID,0.572266,
2010-03-11, 02:06:04,VALID,1006.4,VALID,0,VALID,86.9158,VALID,0,VALID,25.7285,VALID,334,VALID,0.444922,
2010-03-11, 02:07:04,VALID,1006.4,VALID,0,VALID,86.8472,VALID,0,VALID,25.7285,VALID,289,VALID,0.223047,
2010-03-11, 02:08:04,VALID,1006.43,VALID,0,VALID,86.8929,VALID,0,VALID,25.7499,VALID,308,VALID,0.105078,
2010-03-11, 02:09:04,VALID,1006.45,VALID,0,VALID,86.954,VALID,0,VALID,25.7285,VALID,267,VALID,0.684766,
2010-03-11, 02:10:04,VALID,1006.44,VALID,0,VALID,87.0684,VALID,0,VALID,25.7285,VALID,267,VALID,0.117188,
2010-03-11, 02:11:04,VALID,1006.45,VALID,0,VALID,86.8853,VALID,0,VALID,25.7285,VALID,318,VALID,0.719531,
2010-03-11, 02:12:04,VALID,1006.49,VALID,0,VALID,87.1142,VALID,0,VALID,25.7285,VALID,6,VALID,0.450781,
2010-03-11, 02:13:04,VALID,1006.48,VALID,0,VALID,87.0913,VALID,0,VALID,25.709,VALID,11,VALID,0.657031,
2010-03-11, 02:14:04,VALID,1006.49,VALID,0,VALID,87.0455,VALID,0,VALID,25.6876,VALID,345,VALID,0.221875,
2010-03-11, 02:15:04,VALID,1006.47,VALID,0,VALID,87.1828,VALID,0,VALID,25.6876,VALID,345,VALID,0,
2010-03-11, 02:16:04,VALID,1006.5,VALID,0,VALID,87.3049,VALID,0,VALID,25.6895,VALID,344,VALID,0.151953,
2010-03-11, 02:17:04,VALID,1006.5,VALID,0,VALID,87.4346,VALID,0,VALID,25.6895,VALID,344,VALID,0.271484,
2010-03-11, 02:18:04,VALID,1006.5,VALID,0,VALID,87.4499,VALID,0,VALID,25.67,VALID,308,VALID,0.496094,
2010-03-11, 02:19:04,VALID,1006.48,VALID,0,VALID,87.4727,VALID,0,VALID,25.67,VALID,283,VALID,0.129688,
2010-03-11, 02:20:04,VALID,1006.51,VALID,0,VALID,87.5567,VALID,0,VALID,25.6506,VALID,283,VALID,0.0164062,
2010-03-11, 02:21:04,VALID,1006.5,VALID,0,VALID,87.5261,VALID,0,VALID,25.6311,VALID,338,VALID,0.139453,
2010-03-11, 02:22:04,VALID,1006.51,VALID,0,VALID,87.6177,VALID,0,VALID,25.6116,VALID,347,VALID,0.211328,
2010-03-11, 02:23:04,VALID,1006.47,VALID,0,VALID,87.7398,VALID,0,VALID,25.5921,VALID,346,VALID,0.130078,
2010-03-11, 02:24:04,VALID,1006.46,VALID,0,VALID,87.8389,VALID,0,VALID,25.5727,VALID,346,VALID,0.0046875,
2010-03-11, 02:25:04,VALID,1006.46,VALID,0,VALID,87.8542,VALID,0,VALID,25.5727,VALID,346,VALID,0.169531,
2010-03-11, 02:26:04,VALID,1006.45,VALID,0,VALID,87.7779,VALID,0,VALID,25.5532,VALID,297,VALID,0.599219,
2010-03-11, 02:27:04,VALID,1006.44,VALID,0,VALID,87.7855,VALID,0,VALID,25.5337,VALID,301,VALID,0.477734,
2010-03-11, 02:28:04,VALID,1006.43,VALID,0,VALID,87.7398,VALID,0,VALID,25.5532,VALID,309,VALID,0.380469,
2010-03-11, 02:29:04,VALID,1006.41,VALID,0,VALID,87.7626,VALID,0,VALID,25.5337,VALID,308,VALID,0.197656,
2010-03-11, 02:30:04,VALID,1006.45,VALID,0,VALID,87.7016,VALID,0,VALID,25.5532,VALID,318,VALID,0.172266,
2010-03-11, 02:31:04,VALID,1006.42,VALID,0,VALID,87.7398,VALID,0,VALID,25.5337,VALID,319,VALID,0.174609,
2010-03-11, 02:32:04,VALID,1006.43,VALID,0,VALID,87.6406,VALID,0.100563,VALID,25.5337,VALID,331,VALID,0.541016,
2010-03-11, 02:33:04,VALID,1006.44,VALID,0,VALID,87.4651,VALID,0,VALID,25.5337,VALID,351,VALID,1.05,
2010-03-11, 02:34:04,VALID,1006.43,VALID,0,VALID,87.3278,VALID,0,VALID,25.5551,VALID,354,VALID,0.439844,
2010-03-11, 02:35:04,VALID,1006.41,VALID,0,VALID,87.4422,VALID,0,VALID,25.5532,VALID,342,VALID,0.307813,
2010-03-11, 02:36:04,VALID,1006.41,VALID,0,VALID,87.2744,VALID,0,VALID,25.5532,VALID,342,VALID,0,
2010-03-11, 02:37:04,VALID,1006.4,VALID,0,VALID,87.3125,VALID,0,VALID,25.5337,VALID,342,VALID,0.371094,
2010-03-11, 02:38:04,VALID,1006.39,VALID,0,VALID,87.2973,VALID,0,VALID,25.5532,VALID,340,VALID,0.283594,
2010-03-11, 02:39:04,VALID,1006.4,VALID,0,VALID,87.2896,VALID,0,VALID,25.5337,VALID,350,VALID,0.420312,
2010-03-11, 02:40:04,VALID,1006.39,VALID,0,VALID,87.076,VALID,0,VALID,25.5337,VALID,2,VALID,1.01484,
2010-03-11, 02:41:04,VALID,1006.37,VALID,0,VALID,87.16,VALID,0,VALID,25.5337,VALID,348,VALID,0.436719,
2010-03-11, 02:42:04,VALID,1006.37,VALID,0,VALID,87.1371,VALID,0,VALID,25.5532,VALID,359,VALID,0.690625,
2010-03-11, 02:43:04,VALID,1006.36,VALID,0,VALID,87.2973,VALID,0,VALID,25.5532,VALID,3,VALID,0.388281,
2010-03-11, 02:44:04,VALID,1006.35,VALID,0,VALID,87.5185,VALID,0,VALID,25.5337,VALID,3,VALID,0.227344,
2010-03-11, 02:45:04,VALID,1006.32,VALID,0,VALID,87.8466,VALID,0,VALID,25.4948,VALID,3,VALID,0.427344,
2010-03-11, 02:46:04,VALID,1006.31,VALID,0,VALID,87.9839,VALID,0,VALID,25.4558,VALID,12,VALID,0.187891,
2010-03-11, 02:47:04,VALID,1006.3,VALID,0,VALID,88.1899,VALID,0,VALID,25.4363,VALID,12,VALID,0.0308594,
2010-03-11, 02:48:04,VALID,1006.23,VALID,0,VALID,88.3119,VALID,0,VALID,25.4169,VALID,12,VALID,0.0046875,
2010-03-11, 02:49:04,VALID,1006.23,VALID,0,VALID,88.3806,VALID,0,VALID,25.3779,VALID,12,VALID,0,
2010-03-11, 02:50:04,VALID,1006.19,VALID,0,VALID,88.6323,VALID,0,VALID,25.3584,VALID,12,VALID,0.0515625,
2010-03-11, 02:51:04,VALID,1006.2,VALID,0,VALID,88.6628,VALID,0,VALID,25.3195,VALID,12,VALID,0.480859,
2010-03-11, 02:52:04,VALID,1006.17,VALID,0,VALID,88.6705,VALID,0,VALID,25.3,VALID,12,VALID,0.290234,
2010-03-11, 02:53:04,VALID,1006.19,VALID,0,VALID,88.6094,VALID,0,VALID,25.3,VALID,12,VALID,0.0875,
2010-03-11, 02:54:04,VALID,1006.2,VALID,0,VALID,88.5255,VALID,0,VALID,25.2806,VALID,356,VALID,0.585938,
2010-03-11, 02:55:04,VALID,1006.18,VALID,0,VALID,88.5942,VALID,0,VALID,25.2806,VALID,355,VALID,0.0773437,
2010-03-11, 02:56:04,VALID,1006.16,VALID,0,VALID,88.701,VALID,0,VALID,25.2806,VALID,355,VALID,0.522656,
2010-03-11, 02:57:04,VALID,1006.13,VALID,0,VALID,88.6857,VALID,0,VALID,25.3214,VALID,329,VALID,0.247266,
2010-03-11, 02:58:04,VALID,1006.11,VALID,0,VALID,88.6552,VALID,0,VALID,25.3,VALID,330,VALID,0.369922,
2010-03-11, 02:59:04,VALID,1006.09,VALID,0,VALID,88.4111,VALID,0,VALID,25.3195,VALID,343,VALID,0.606641,
2010-03-11, 03:00:04,VALID,1006.08,VALID,0,VALID,88.2585,VALID,0,VALID,25.3195,VALID,358,VALID,0.403516,
2010-03-11, 03:01:04,VALID,1006.08,VALID,0,VALID,88.3043,VALID,0,VALID,25.3195,VALID,358,VALID,0.241797,
2010-03-11, 03:02:04,VALID,1006.07,VALID,0,VALID,88.4492,VALID,0,VALID,25.3409,VALID,358,VALID,0.116797,
2010-03-11, 03:03:04,VALID,1006.04,VALID,0,VALID,88.3348,VALID,0,VALID,25.3,VALID,358,VALID,0.283984,
2010-03-11, 03:04:04,VALID,1006.02,VALID,0,VALID,88.2738,VALID,0,VALID,25.2786,VALID,358,VALID,0,
2010-03-11, 03:05:04,VALID,1006.01,VALID,0,VALID,88.2509,VALID,0,VALID,25.2806,VALID,358,VALID,0.128906,
2010-03-11, 03:06:04,VALID,1006.01,VALID,0,VALID,88.0831,VALID,0,VALID,25.2825,VALID,353,VALID,0.638672,
2010-03-11, 03:07:04,VALID,1005.98,VALID,0,VALID,87.8542,VALID,0,VALID,25.2825,VALID,52,VALID,0.523438,
2010-03-11, 03:08:04,VALID,1005.96,VALID,0,VALID,87.7321,VALID,0,VALID,25.2806,VALID,283,VALID,0.336328,
2010-03-11, 03:09:04,VALID,1005.98,VALID,0,VALID,87.6329,VALID,0,VALID,25.3,VALID,322,VALID,0.444141,
2010-03-11, 03:10:04,VALID,1005.97,VALID,0,VALID,87.488,VALID,0,VALID,25.3,VALID,354,VALID,0.548437,
2010-03-11, 03:11:04,VALID,1005.96,VALID,0,VALID,87.4956,VALID,0,VALID,25.3195,VALID,347,VALID,0.35625,
2010-03-11, 03:12:04,VALID,1005.95,VALID,0,VALID,87.6635,VALID,0,VALID,25.3214,VALID,347,VALID,0,
2010-03-11, 03:13:04,VALID,1005.96,VALID,0,VALID,87.8008,VALID,0,VALID,25.3019,VALID,347,VALID,0,
2010-03-11, 03:14:04,VALID,1005.97,VALID,0,VALID,88.0831,VALID,0,VALID,25.2416,VALID,347,VALID,0,
2010-03-11, 03:15:04,VALID,1005.97,VALID,0,VALID,88.3195,VALID,0,VALID,25.1832,VALID,347,VALID,0.4625,
2010-03-11, 03:16:04,VALID,1005.97,VALID,0,VALID,88.6323,VALID,0,VALID,25.1248,VALID,347,VALID,0.0339844,
2010-03-11, 03:17:04,VALID,1005.99,VALID,0,VALID,88.7773,VALID,0,VALID,25.0663,VALID,347,VALID,0,
2010-03-11, 03:18:04,VALID,1006.01,VALID,0,VALID,88.9833,VALID,0,VALID,25.0469,VALID,347,VALID,0,
2010-03-11, 03:19:04,VALID,1005.99,VALID,0,VALID,89.2198,VALID,0,VALID,24.9885,VALID,347,VALID,0.233984,
2010-03-11, 03:20:04,VALID,1006.05,VALID,0,VALID,89.4791,VALID,0,VALID,24.9495,VALID,347,VALID,0.278516,
2010-03-11, 03:21:04,VALID,1006.04,VALID,0,VALID,89.8301,VALID,0,VALID,24.9106,VALID,347,VALID,0.126172,
2010-03-11, 03:22:04,VALID,1006.1,VALID,0,VALID,90.181,VALID,0,VALID,24.8735,VALID,347,VALID,0.237891,
2010-03-11, 03:23:04,VALID,1006.1,VALID,0,VALID,90.4938,VALID,0,VALID,24.8132,VALID,347,VALID,0.208203,
2010-03-11, 03:24:04,VALID,1006.13,VALID,0,VALID,90.8295,VALID,0,VALID,24.7548,VALID,347,VALID,0,
2010-03-11, 03:25:04,VALID,1006.14,VALID,0,VALID,91.1651,VALID,0,VALID,24.7353,VALID,347,VALID,0.124219,
2010-03-11, 03:26:04,VALID,1006.17,VALID,0,VALID,91.4169,VALID,0,VALID,24.7177,VALID,347,VALID,0,
2010-03-11, 03:27:04,VALID,1006.19,VALID,0,VALID,91.4855,VALID,0,VALID,24.6769,VALID,347,VALID,0,
2010-03-11, 03:28:04,VALID,1006.2,VALID,0,VALID,91.6,VALID,0,VALID,24.638,VALID,347,VALID,0,
2010-03-11, 03:29:04,VALID,1006.22,VALID,0,VALID,91.6763,VALID,0,VALID,24.638,VALID,347,VALID,0,
2010-03-11, 03:30:04,VALID,1006.25,VALID,0,VALID,91.8212,VALID,0,VALID,24.6593,VALID,347,VALID,0.261328,
2010-03-11, 03:31:04,VALID,1006.26,VALID,0,VALID,91.8975,VALID,0,VALID,24.599,VALID,347,VALID,0.0105469,
2010-03-11, 03:32:04,VALID,1006.24,VALID,0,VALID,91.9814,VALID,0,VALID,24.5972,VALID,347,VALID,0,
2010-03-11, 03:33:04,VALID,1006.24,VALID,0,VALID,91.989,VALID,0,VALID,24.5796,VALID,347,VALID,0,
2010-03-11, 03:34:04,VALID,1006.22,VALID,0,VALID,92.0119,VALID,0,VALID,24.5796,VALID,347,VALID,0,
2010-03-11, 03:35:04,VALID,1006.23,VALID,0,VALID,92.0577,VALID,0,VALID,24.5193,VALID,347,VALID,0,
2010-03-11, 03:36:04,VALID,1006.22,VALID,0,VALID,92.1492,VALID,0,VALID,24.5212,VALID,347,VALID,0,
2010-03-11, 03:37:04,VALID,1006.24,VALID,0,VALID,92.2255,VALID,0,VALID,24.4998,VALID,347,VALID,0.180859,
2010-03-11, 03:38:04,VALID,1006.22,VALID,0,VALID,92.34,VALID,0,VALID,24.4609,VALID,347,VALID,0.430859,
2010-03-11, 03:39:04,VALID,1006.25,VALID,0,VALID,92.34,VALID,0,VALID,24.4414,VALID,347,VALID,0.53125,
2010-03-11, 03:40:04,VALID,1006.26,VALID,0,VALID,92.3705,VALID,0,VALID,24.3849,VALID,347,VALID,0.582031,
2010-03-11, 03:41:04,VALID,1006.23,VALID,0,VALID,92.462,VALID,0,VALID,24.3265,VALID,347,VALID,0.569922,
2010-03-11, 03:42:04,VALID,1006.23,VALID,0,VALID,92.6146,VALID,0,VALID,24.2468,VALID,347,VALID,0.455859,
2010-03-11, 03:43:04,VALID,1006.23,VALID,0,VALID,92.7901,VALID,0,VALID,24.2291,VALID,347,VALID,0.366797,
2010-03-11, 03:44:04,VALID,1006.2,VALID,0,VALID,92.935,VALID,0,VALID,24.1902,VALID,347,VALID,0.284766,
2010-03-11, 03:45:04,VALID,1006.22,VALID,0,VALID,93.1029,VALID,0,VALID,24.1707,VALID,347,VALID,0.435937,
2010-03-11, 03:46:04,VALID,1006.24,VALID,0,VALID,93.2783,VALID,0,VALID,24.13,VALID,347,VALID,0.448047,
2010-03-11, 03:47:04,VALID,1006.27,VALID,0,VALID,93.4004,VALID,0,VALID,24.1318,VALID,347,VALID,0,